Regional Weather Roundup
Issued by NWS

Home | Current Version | Previous Version | Text Only | Print | Product List | Glossary On
Versions: 1 2 3 4 5 6 7 8 9 10 11 12 13 14 15 16 17 18 19 20 21 22 23 24 25 26 27 28 29 30 31 32 33 34 35 36 37 38 39 40 41 42 43 44 45 46 47 48 49 50
000
ASUS45 KBOU 032307
RWRCO

WEATHER ROUNDUP FOR COLORADO
NATIONAL WEATHER SERVICE DENVER/BOULDER CO
400 PM MST TUE MAR 03 2015

NOTE: "FAIR" INDICATES FEW OR NO CLOUDS BELOW 12000 FEET WITH NO
SIGNIFICANT WEATHER AND/OR OBSTRUCTIONS TO VISIBILITY.

COZ001>005-013-030-031-040000-
...NORTHWEST COLORADO...

CITY           SKY/WX    TMP DP  RH WIND       PRES   REMARKS
CRAIG          LGT SNOW  28  23  81 NW17      29.72R VSB 3/4 WCI  16
HAYDEN         CLOUDY    30  21  69 SW14G20   29.67S WCI  20
MEEKER         CLOUDY    34  25  69 SW12      29.70S WCI  25
MOUNT WERNER   NOT AVBL
STEAMBOAT SPGS CLOUDY    28  25  87 W5        29.68S WCI  23
WALDEN         CLOUDY    25  19  80 SW13      29.63R WCI  13
$$

COZ006>008-011-040000-
...WEST CENTRAL VALLEYS...

CITY           SKY/WX    TMP DP  RH WIND       PRES   REMARKS
GRAND JUNCTION PTSUNNY   39  30  70 W18G25    29.74R
MONTROSE       PTSUNNY   41  23  48 W14G23    29.76R
EAGLE          LGT SNOW  30  30 100 SW14      29.72S FOG     WCI  20
RIFLE          HVY SNOW  33  30  88 W17G33    29.74R VSB 1/4 WCI  22
DELTA          CLOUDY    41  29  61 W10       29.75R
NUCLA          PTSUNNY   39  27  60 SW16G23   29.80F
$$

COZ017>023-064>068-040000-
...SOUTHWEST COLORADO...

CITY           SKY/WX    TMP DP  RH WIND       PRES   REMARKS
DURANGO        FLURRIES  32  28  85 W12       29.80S WCI  23
CORTEZ         CLOUDY    38  30  73 NW7G16    29.81S
PAGOSA SPRINGS LGT SNOW  32  29  90 S10       29.78F WCI  24
TELLURIDE      CLOUDY    28  19  71 W8        29.76S WCI  19
WOLF CREEK PAS CLOUDY    12  12 100 MISG      29.73F
$$

COZ009-010-012-014-032>034-037-058>063-040000-
...CENTRAL COLORADO...

CITY           SKY/WX    TMP DP  RH WIND       PRES   REMARKS
ASPEN          CLOUDY    30  20  66 SE9       29.67S WCI  22
BUENA VISTA    CLOUDY    32  20  61 SW7G16    29.67S WCI  25
COPPER MTN     NOT AVBL
BERTHOUD PASS  LGT SNOW  10   3  72 W18G44    29.62S VSB 3/4 WCI  -8
COTTONWOOD PAS LGT SNOW  27  19  74 SW12      29.66F WCI  16
GUNNISON       FAIR      34  12  40 W16G25    29.73S WCI  23
KREMMLING      MOSUNNY   34  21  60 SW10G18   29.66S WCI  26
LEADVILLE      CLOUDY    21  13  71 NW8G17    29.64S WCI  11
SALIDA         PTSUNNY   38  24  56 S7        29.75S
SUNLIGHT       LGT SNOW  21  19  93 CALM      29.69
WILKERSON PASS SNOW      18  16  93 S6        29.66S VSB 1/2 WCI   9
$$

COZ069>075-040000-
...SAN LUIS VALLEY/SANGRE DE CRISTO MOUNTAINS...

CITY           SKY/WX    TMP DP  RH WIND       PRES   REMARKS
ALAMOSA        SUNNY     36  20  52 SW21      29.73S
LA VETA PASS   SUNNY     28  14  54 S15G36    29.72R WCI  17
SAGUACHE       CLOUDY    36  19  51 SW17G26   29.67R
$$

COZ035-036-038>040-040000-
...NORTHERN COLORADO FRONT RANGE...

CITY           SKY/WX    TMP DP  RH WIND       PRES   REMARKS
DENVER INTL AP CLOUDY    19  14  81 E5        29.81F WCI  12
DMNS CITY PARK   N/A     20  14  77 E2        29.82S
AURORA         CLOUDY    19  15  84 NE2       29.81S
FRONT RANGE AP NOT AVBL
ERIE MUNI ARPT LGT SNOW  23  15  72 CALM      29.83F
BOULDER MUN AP LGT SNOW  23  18  80 E5        29.81F WCI  17
CENTENNIAL     CLOUDY    18  14  84 E5        29.79S WCI  11
BROOMFIELD     NOT AVBL
FORT COLLINS   MOSUNNY   25  12  58 SE6       29.85S WCI  18
LONGMONT       CLOUDY    26  16  66 S5        29.85S WCI  20
$$

COZ041-046-047-076>085-087-088-040000-
...PIKES PEAK/PALMER DIVIDE AND SOUTHERN FOOTHILLS...

CITY           SKY/WX    TMP DP  RH WIND       PRES   REMARKS
COLO. SPRINGS  CLOUDY    24  18  77 E10       29.76F WCI  14
A. F. ACADEMY  CLOUDY    23  17  79 SE8       29.73F WCI  13
ELLICOTT       NOT AVBL
FALCON         CLOUDY    19  17  93 NE7       29.75F WCI  10
FORT CARSON    CLOUDY    26  20  75 E8        29.76S WCI  18
LIMON          NOT AVBL
MONUMENT HILL  FOG       18  16  93 NE5       29.73S VSB 3/4 WCI  11
TRINIDAD       CLOUDY    31  28  89 NE12      29.79R WCI  22
$$

COZ042>045-048>051-090-091-040000-
...NORTHEAST COLORADO...

CITY           SKY/WX    TMP DP  RH WIND       PRES   REMARKS
GREELEY ARPT   PTSUNNY   25  10  54 NE5       29.83F WCI  19
AKRON          CLOUDY    24  11  57 NE8       29.84S WCI  15
BURLINGTON     CLOUDY    27  15  61 NE14      29.84S WCI  16
WRAY           CLOUDY    31  13  47 N8        29.89S WCI  23
STERLING       CLOUDY    27  12  54 NE9       29.87F WCI  17
HOLYOKE        NOT AVBL
FORT MORGAN    CLOUDY    24  12  58 NE5       29.86S WCI  19
$$

COZ086-089-092>099-040000-
...SOUTHEAST COLORADO...

CITY           SKY/WX    TMP DP  RH WIND       PRES   REMARKS
PUEBLO         CLOUDY    31  22  69 E15       29.81R WCI  20
LA JUNTA       CLOUDY    31  23  72 NE15      29.85R WCI  20
LAMAR          CLOUDY    30  22  72 NE13      29.86R WCI  20
SPRINGFIELD      N/A     28  28 100 NE17      29.82R WCI  16
$$



USA.gov is the U.S. government's official web portal to all federal, state and local government web resources and services.